DELTA 1 DEB, 10720

Orbit data source: Space-Track

DELTA 1 DEB, 10720 is space debris in SSO originally from a launch on Thu, 29 Jul 1976 UTC launched from the Air Force Western Test Range (AFWTR). Debris objects in space refer to the collection of defunct objects orbiting the Earth. Examples of debris include non-operational satellites, rocket bodies, and fragments generated from explosions, collisions, or faulty payload assembly.

Loading next visibility...
Identifier
10720, 1976-077AR
Orbit
SSO
Country
Flag of USUS
Related business
Manufacturer
Unknown
Mission
Spacecraft
Bus & Motor
Unknown
Mass
Unknown
Launch date (UTC)
1976-07-29 (50 years ago)
Launch vehicle
Unknown
Launch site
Air Force Western Test Range (AFWTR)
Object type
Payload
Rocket body
Debris
Shape & HBR
Unknown shape, 0.2 m
Radar Cross Section
Medium (>0.1 m² and <1 m²)

Expand to show TLE details & history
Last TLE update: 5 hours ago

TLE from 5 hours ago
0 DELTA 1 DEB
1 10720U 76077AR  26255.89404713  .00000235  00000-0  26296-2 0  9990
2 10720 102.1321 356.5148 0358572  32.5281  81.9255 12.05689859206488
Epoch: 2026-09-12T21:27Z
TLE epoch observation values (Epoch: 2026-09-12T21:27:25.672Z)
Latitude
59.27627°
Longitude
-116.14083°
Altitude
1,635.045 km
Speed
7.073 km/s
True Right ascension
13h 10m 27s
True Declination
59° 08' 30"
Sunlit
Object was in daylight at epoch
Visualization orbit readout
Latitude
Unknown
Longitude
Unknown
Altitude
Unknown
Speed
Unknown
Apparent Right ascension
Unknown
Apparent Declination
Unknown
Sunlit
N/A
Visualization observer readout
Local Sidereal Time
18:36:36
Azimuth
Unknown
Elevation
Unknown
Doppler factor
Unknown
Orbital elements
Apogee altitude
1,941.087 km
Perigee altitude
1,365.131 km
Semi-major axis
8,031.246 km
Eccentricity
0.03586
Inclination
102.1321°
RAAN
356.5148°
Arg. of periapsis
32.5281°
True anomaly
86.01599°
Mean anomaly
81.9255°
Eccentric anomaly
83.96859°
Mean motion
3.01557 °/min
Orbital period
119.38 mins
BSTAR
0.0026296
Loading maneuver chart data...
Computing Atmospheric mass density...
Loading historical data...
Loading historical data...
Loading historical data...
Loading historical data...
Loading historical data...
Loading historical data...
Loading historical data...

Documentation

Showing up to 5 results
|